• In Hungary
  • List of Countries
  • For 7 days
  • Water Temperature
  • Satellite Maps
  • Weather Map
  • News
  • Weather Widgets
  • user-avatar
    Login

    Hourly Weather Novoaltybaevo

    Today, 28 May, Monday

    Time Temperature Precipitation Wind Pressure Humidity
    00:00 +11°C° 0.8 mm 6 mps 748 mmHg 91%
    01:00 +11°C° 0.8 mm 6 mps 747 mmHg 92%
    02:00 +10°C° 2 mm 6 mps 747 mmHg 92%
    03:00 +9°C° 2 mm 5 mps 747 mmHg 92%
    04:00 +7°C° 2 mm 5 mps 746 mmHg 93%
    05:00 +8°C° 0.3 mm 4 mps 747 mmHg 91%
    06:00 +8°C° 0.3 mm 4 mps 747 mmHg 89%
    07:00 +8°C° 0.3 mm 4 mps 748 mmHg 88%
    08:00 +8°C° 0.5 mm 5 mps 748 mmHg 85%
    09:00 +8°C° 0.5 mm 5 mps 749 mmHg 82%
    10:00 +9°C° 0.5 mm 6 mps 749 mmHg 79%
    11:00 +8°C° 0.5 mm 7 mps 750 mmHg 78%
    12:00 +8°C° 0.5 mm 7 mps 750 mmHg 76%
    13:00 +8°C° 0.5 mm 7 mps 750 mmHg 74%
    14:00 +8°C° 0.1 mm 7 mps 751 mmHg 69%
    15:00 +9°C° 0.1 mm 7 mps 751 mmHg 65%
    16:00 +9°C° 0.1 mm 7 mps 752 mmHg 60%
    17:00 +9°C° 0.1 mm 6 mps 752 mmHg 62%
    18:00 +8°C° 0.1 mm 6 mps 753 mmHg 64%
    19:00 +8°C° 0.1 mm 5 mps 753 mmHg 66%
    20:00 +7°C° 0 mm 4 mps 754 mmHg 67%
    21:00 +6°C° 0 mm 4 mps 754 mmHg 69%
    22:00 +4°C° 0 mm 4 mps 755 mmHg 70%
    23:00 +4°C° 0 mm 4 mps 755 mmHg 72%

    Tomorrow, 29 May, Tuesday

    Time Temperature Precipitation Wind Pressure Humidity
    00:00 +3°C° 0 mm 4 mps 755 mmHg 74%
    01:00 +3°C° 0 mm 4 mps 755 mmHg 76%
    02:00 +1°C° 0 mm 4 mps 755 mmHg 77%
    03:00 +1°C° 0 mm 4 mps 755 mmHg 79%
    04:00 +1°C° 0 mm 3 mps 756 mmHg 80%
    05:00 +3°C° 0 mm 4 mps 756 mmHg 77%
    06:00 +4°C° 0 mm 4 mps 755 mmHg 73%
    07:00 +5°C° 0 mm 4 mps 755 mmHg 70%
    08:00 +6°C° 0 mm 4 mps 755 mmHg 65%
    09:00 +7°C° 0 mm 5 mps 754 mmHg 60%
    10:00 +8°C° 0 mm 5 mps 754 mmHg 55%
    11:00 +8°C° 0.1 mm 5 mps 754 mmHg 59%
    12:00 +8°C° 0.1 mm 5 mps 753 mmHg 62%
    13:00 +8°C° 0.1 mm 5 mps 753 mmHg 65%
    14:00 +8°C° 0 mm 5 mps 752 mmHg 68%
    15:00 +8°C° 0 mm 5 mps 752 mmHg 70%
    16:00 +10°C° 0 mm 4 mps 751 mmHg 72%
    17:00 +9°C° 0.1 mm 3 mps 751 mmHg 77%
    18:00 +9°C° 0.1 mm 3 mps 750 mmHg 81%
    19:00 +9°C° 0.1 mm 2 mps 750 mmHg 86%
    20:00 +8°C° 0 mm 2 mps 750 mmHg 88%
    21:00 +7°C° 0 mm 2 mps 750 mmHg 91%
    22:00 +6°C° 0 mm 2 mps 750 mmHg 93%
    23:00 +6°C° 0 mm 2 mps 750 mmHg 94%

    Day after tomorrow, 30 May, Wednesday

    Time Temperature Precipitation Wind Pressure Humidity
    00:00 +7°C° 0 mm 1 mps 750 mmHg 94%
    01:00 +6°C° 0 mm 1 mps 750 mmHg 95%
    02:00 +6°C° 0 mm 1 mps 749 mmHg 95%
    03:00 +6°C° 0 mm 1 mps 749 mmHg 94%
    04:00 +6°C° 0 mm 1 mps 749 mmHg 94%
    05:00 +6°C° 0 mm 2 mps 749 mmHg 92%
    06:00 +8°C° 0 mm 3 mps 748 mmHg 90%
    07:00 +9°C° 0 mm 3 mps 748 mmHg 88%
    08:00 +10°C° 0.5 mm 4 mps 747 mmHg 88%
    09:00 +9°C° 0.5 mm 5 mps 747 mmHg 89%
    10:00 +10°C° 0.5 mm 5 mps 746 mmHg 90%
    11:00 +11°C° 0.3 mm 6 mps 745 mmHg 87%
    12:00 +14°C° 0.3 mm 6 mps 744 mmHg 84%
    13:00 +15°C° 0.3 mm 7 mps 744 mmHg 80%
    14:00 +17°C° 0.3 mm 7 mps 743 mmHg 76%
    15:00 +18°C° 0.3 mm 7 mps 742 mmHg 72%
    16:00 +20°C° 0.3 mm 8 mps 741 mmHg 68%
    17:00 +18°C° 0.2 mm 7 mps 740 mmHg 72%
    18:00 +18°C° 0.2 mm 7 mps 740 mmHg 75%
    19:00 +17°C° 0.2 mm 7 mps 739 mmHg 79%
    20:00 +16°C° 1.2 mm 7 mps 739 mmHg 82%
    21:00 +15°C° 1.2 mm 7 mps 738 mmHg 85%
    22:00 +15°C° 1.2 mm 6 mps 738 mmHg 88%
    23:00 +14°C° 0.8 mm 6 mps 738 mmHg 89%

    31 May, Thursday

    Time Temperature Precipitation Wind Pressure Humidity
    00:00 +13°C° 0.8 mm 6 mps 738 mmHg 89%
    01:00 +13°C° 0.8 mm 6 mps 738 mmHg 89%
    02:00 +10°C° 0 mm 6 mps 738 mmHg 90%
    03:00 +9°C° 0 mm 6 mps 739 mmHg 91%
    04:00 +8°C° 0 mm 6 mps 739 mmHg 92%
    05:00 +9°C° 0 mm 6 mps 740 mmHg 90%
    06:00 +9°C° 0 mm 7 mps 740 mmHg 87%
    07:00 +10°C° 0 mm 7 mps 741 mmHg 85%
    08:00 +10°C° 0.1 mm 7 mps 741 mmHg 82%
    09:00 +10°C° 0.1 mm 7 mps 742 mmHg 79%
    10:00 +10°C° 0.1 mm 7 mps 742 mmHg 76%
    11:00 +10°C° 0.1 mm 7 mps 743 mmHg 75%
    12:00 +10°C° 0.1 mm 7 mps 743 mmHg 73%
    13:00 +9°C° 0.1 mm 7 mps 744 mmHg 71%
    14:00 +10°C° 0 mm 6 mps 744 mmHg 69%
    15:00 +10°C° 0 mm 6 mps 745 mmHg 68%
    16:00 +10°C° 0 mm 5 mps 745 mmHg 66%
    17:00 +9°C° 0 mm 5 mps 745 mmHg 68%
    18:00 +10°C° 0 mm 4 mps 746 mmHg 70%
    19:00 +10°C° 0 mm 3 mps 746 mmHg 72%
    20:00 +9°C° 0 mm 3 mps 747 mmHg 73%
    21:00 +7°C° 0 mm 3 mps 747 mmHg 75%
    22:00 +5°C° 0 mm 3 mps 748 mmHg 76%
    23:00 +4°C° 0 mm 3 mps 748 mmHg 78%

    1 June, Friday

    Time Temperature Precipitation Wind Pressure Humidity
    00:00 +3°C° 0 mm 3 mps 749 mmHg 81%
    01:00 +2°C° 0 mm 3 mps 749 mmHg 83%
    02:00 +2°C° 0 mm 3 mps 750 mmHg 85%
    03:00 +1°C° 0 mm 3 mps 750 mmHg 87%
    04:00 +1°C° 0 mm 3 mps 751 mmHg 89%
    05:00 +2°C° 0 mm 3 mps 751 mmHg 86%
    06:00 +4°C° 0 mm 3 mps 751 mmHg 82%
    07:00 +5°C° 0 mm 3 mps 752 mmHg 78%
    08:00 +7°C° 0 mm 3 mps 752 mmHg 72%
    09:00 +9°C° 0 mm 3 mps 752 mmHg 66%
    10:00 +10°C° 0 mm 3 mps 753 mmHg 60%
    11:00 +11°C° 0.1 mm 3 mps 753 mmHg 58%
    12:00 +13°C° 0.1 mm 2 mps 753 mmHg 55%
    13:00 +14°C° 0.1 mm 2 mps 753 mmHg 53%
    14:00 +14°C° 0.1 mm 2 mps 753 mmHg 54%
    15:00 +13°C° 0.1 mm 2 mps 753 mmHg 56%
    16:00 +13°C° 0.1 mm 2 mps 753 mmHg 57%
    17:00 +13°C° 0.1 mm 2 mps 753 mmHg 61%
    18:00 +12°C° 0.1 mm 2 mps 754 mmHg 66%
    19:00 +12°C° 0.1 mm 2 mps 754 mmHg 70%
    20:00 +10°C° 0 mm 2 mps 754 mmHg 71%
    21:00 +8°C° 0 mm 2 mps 754 mmHg 72%
    22:00 +8°C° 0 mm 1 mps 755 mmHg 73%
    23:00 +6°C° 0 mm 2 mps 755 mmHg 73%

    2 June, Saturday

    Time Temperature Precipitation Wind Pressure Humidity
    00:00 +6°C° 0 mm 2 mps 755 mmHg 74%
    01:00 +5°C° 0 mm 2 mps 755 mmHg 75%
    02:00 +5°C° 0 mm 2 mps 755 mmHg 74%
    03:00 +5°C° 0 mm 2 mps 755 mmHg 74%
    04:00 +4°C° 0 mm 2 mps 756 mmHg 74%
    05:00 +6°C° 0 mm 2 mps 756 mmHg 72%
    06:00 +7°C° 0 mm 2 mps 756 mmHg 70%
    07:00 +8°C° 0 mm 2 mps 756 mmHg 69%
    08:00 +9°C° 0 mm 2 mps 756 mmHg 62%
    09:00 +10°C° 0 mm 3 mps 756 mmHg 56%
    10:00 +11°C° 0 mm 3 mps 756 mmHg 50%
    11:00 +11°C° 0 mm 3 mps 756 mmHg 50%
    12:00 +12°C° 0 mm 3 mps 756 mmHg 50%
    13:00 +12°C° 0 mm 4 mps 756 mmHg 51%
    14:00 +12°C° 0 mm 4 mps 756 mmHg 51%
    15:00 +12°C° 0 mm 4 mps 756 mmHg 52%
    16:00 +12°C° 0 mm 4 mps 756 mmHg 52%
    17:00 +12°C° 0 mm 3 mps 756 mmHg 56%
    18:00 +13°C° 0 mm 2 mps 756 mmHg 60%
    19:00 +12°C° 0 mm 2 mps 756 mmHg 64%
    20:00 +11°C° 0 mm 1 mps 756 mmHg 68%
    21:00 +9°C° 0 mm 1 mps 757 mmHg 71%
    22:00 +6°C° 0 mm 0 mps 757 mmHg 74%
    23:00 +7°C° 0 mm 1 mps 757 mmHg 75%
    Show more